User: anonymous
Location: Albany
(35.0000°S, 118.0000°E)
Time: 14:57:15
(UTC-04:00)
Language:

ERS-1 Rocket - Orbit

View from above orbital plane
View from above orbital plane
View from above satellite
View from above satellite

Ground track
Ground track

The orbit data is extracted from the following two-line orbital elements,

1 21610U 91050F   14237.17316181  .00000241  00000-0  90500-4 0  5755
2 21610 098.7388 263.3654 0004358 121.9751 279.6790 14.40317593212248
Epoch (UTC): 25 August 2014 04:09:21
Eccentricity: 0.0004358
inclination: 98.7388°
perigee height: 754 km
apogee height: 760 km
right ascension of ascending node: 263.3654°
argument of perigee: 121.9751°
revolutions per day: 14.40317593
mean anomaly at epoch: 279.6790°
orbit number at epoch: 21224

The dashed part of the orbit path shows where the satellite is in the earth's shadow,  

DLR